Temp
-12 -12 -12 -11 -11 -11 -11 -11 -12 -13 -13 -14 -14 -13 -13 -13 -13 -14 -14 -14 -14 -14 -13 -13 -13 -12 -12 -13 -13 -13 -13 -12 -12 -13 -13 -13 -13 -13 -14 -14 -14 -14 -14
-12 -12 -12 -12 -12 -12 -12 -12 -12 -13 -12 -13 -13 -13 -13 -13 -13 -14 -15 -14 -14 -13 -13 -13 -13 -12 -12 -13 -13 -13 -13 -13 -13 -13 -13 -13 -14 -14 -14 -14 -14 -15 -15
-12 -12 -12 -12 -12 -12 -12 -12 -12 -12 -12 -12 -13 -13 -13 -13 -14 -14 -14 -14 -14 -13 -13 -13 -13 -13 -13 -13 -13 -13 -13 -13 -13 -13 -14 -14 -14 -14 -14 -15 -15 -15 -15
-12 -12 -12 -12 -12 -12 -12 -12 -12 -11 -12 -12 -12 -12 -12 -13 -12 -13 -13 -14 -13 -13 -13 -13 -13 -13 -13 -13 -13 -13 -13 -13 -14 -14 -14 -14 -14 -15 -15 -15 -15 -15 -15
-12 -13 -12 -13 -12 -12 -12 -12 -12 -12 -12 -12 -12 -12 -12 -12 -12 -13 -13 -13 -13 -13 -13 -13 -13 -13 -13 -13 -13 -13 -13 -13 -14 -14 -14 -15 -14 -15 -15 -15 -16 -16 -16
-12 -12 -13 -13 -12 -12 -12 -12 -12 -12 -12 -12 -12 -12 -12 -12 -12 -13 -13 -13 -13 -13 -13 -13 -13 -13 -13 -13 -13 -13 -13 -14 -14 -14 -14 -15 -15 -15 -16 -16 -16 -16 -16
-13 -12 -12 -13 -12 -12 -12 -12 -12 -12 -12 -12 -12 -12 -12 -13 -12 -13 -13 -13 -13 -13 -13 -13 -13 -14 -13 -13 -13 -13 -14 -14 -14 -14 -14 -14 -15 -15 -16 -17 -17 -17 -18
-13 -13 -12 -12 -13 -13 -12 -12 -12 -12 -12 -12 -13 -13 -12 -13 -13 -13 -13 -13 -13 -13 -13 -13 -13 -13 -13 -13 -13 -14 -14 -14 -14 -14 -14 -14 -15 -15 -16 -16 -17 -17 -18
-12 -12 -12 -12 -13 -13 -12 -12 -12 -13 -13 -13 -13 -13 -13 -13 -13 -13 -13 -13 -13 -13 -13 -13 -13 -13 -13 -13 -13 -14 -14 -13 -14 -14 -14 -14 -15 -15 -16 -16 -17 -17 -18
-12 -12 -12 -12 -12 -12 -13 -13 -13 -13 -13 -13 -13 -13 -13 -13 -13 -13 -13 -13 -13 -13 -13 -13 -13 -13 -14 -14 -13 -13 -13 -13 -14 -13 -14 -14 -14 -15 -15 -16 -16 -17 -17
-13 -13 -13 -12 -13 -13 -13 -13 -13 -13 -13 -13 -13 -13 -13 -13 -13 -13 -13 -13 -13 -13 -13 -14 -14 -14 -14 -14 -13 -14 -14 -14 -14 -14 -14 -14 -15 -15 -15 -16 -16 -16 -16
-13 -13 -13 -13 -13 -13 -13 -13 -13 -13 -13 -13 -13 -13 -13 -13 -13 -13 -13 -13 -14 -14 -13 -13 -14 -14 -14 -14 -14 -14 -14 -14 -14 -14 -15 -15 -16 -15 -15 -15 -15 -16 -16
-14 -13 -13 -13 -13 -13 -13 -13 -13 -13 -13 -13 -13 -13 -13 -13 -13 -13 -13 -14 -14 -14 -14 -14 -15 -15 -14 -14 -14 -14 -14 -15 -15 -14 -15 -16 -16 -15 -15 -16 -16 -16 -16
-13 -13 -13 -13 -13 -13 -13 -13 -13 -13 -13 -13 -13 -13 -13 -13 -13 -14 -14 -14 -14 -14 -14 -15 -15 -15 -14 -15 -15 -15 -15 -15 -15 -15 -15 -16 -15 -15 -16 -16 -16 -16 -16
-13 -13 -13 -13 -13 -13 -13 -13 -13 -13 -13 -13 -14 -14 -14 -14 -14 -13 -14 -14 -14 -14 -15 -15 -15 -15 -15 -15 -15 -15 -15 -15 -15 -16 -15 -15 -15 -15 -16 -16 -16 -16 -16
-14 -14 -13 -13 -13 -14 -14 -14 -13 -14 -14 -14 -14 -14 -14 -14 -14 -14 -14 -14 -14 -14 -15 -15 -15 -15 -15 -15 -15 -15 -15 -15 -15 -15 -15 -15 -15 -16 -16 -16 -16 -16 -16
-15 -15 -14 -14 -14 -13 -14 -14 -14 -14 -14 -14 -14 -14 -14 -14 -14 -14 -14 -14 -14 -14 -14 -15 -15 -15 -15 -15 -15 -15 -15 -15 -15 -16 -15 -15 -15 -15 -16 -16 -16 -16 -16
-14 -14 -14 -14 -14 -14 -14 -14 -14 -14 -14 -14 -14 -14 -14 -15 -14 -14 -14 -14 -14 -14 -14 -14 -14 -14 -15 -15 -15 -15 -15 -15 -15 -15 -16 -16 -16 -16 -16 -16 -16 -16 -16
-14 -14 -14 -14 -14 -14 -14 -14 -14 -14 -14 -14 -14 -14 -14 -14 -14 -14 -14 -14 -14 -14 -14 -14 -15 -14 -14 -15 -15 -15 -15 -15 -15 -16 -16 -16 -16 -16 -16 -16 -16 -16 -16
-14 -14 -14 -14 -13 -13 -14 -14 -14 -14 -14 -14 -14 -14 -15 -15 -15 -15 -15 -15 -15 -15 -15 -15 -15 -16 -16 -16 -16 -16 -16 -16 -16 -16 -16 -16 -16 -16 -16 -16 -16 -16 -16
-14 -14 -14 -14 -14 -14 -15 -15 -14 -14 -14 -15 -15 -15 -15 -15 -15 -15 -15 -15 -15 -15 -15 -15 -15 -16 -16 -16 -16 -16 -15 -16 -16 -16 -16 -16 -16 -17 -16 -16 -16 -16 -16
-14 -14 -15 -15 -15 -15 -15 -15 -15 -15 -15 -15 -15 -15 -15 -15 -15 -15 -15 -15 -15 -15 -15 -15 -15 -15 -15 -16 -16 -16 -16 -16 -16 -17 -17 -17 -16 -16 -16 -16 -16 -16 -17
-15 -15 -15 -15 -14 -15 -15 -15 -15 -15 -15 -15 -15 -15 -15 -15 -15 -15 -15 -16 -16 -16 -15 -15 -15 -15 -15 -15 -16 -16 -16 -16 -16 -16 -17 -17 -16 -16 -16 -16 -16 -16 -16
-15 -15 -15 -14 -14 -15 -15 -15 -15 -15 -15 -15 -15 -15 -15 -15 -15 -15 -16 -16 -16 -16 -15 -16 -16 -16 -16 -16 -16 -16 -16 -16 -16 -16 -16 -16 -16 -15 -15 -15 -15 -15 -16
-15 -15 -15 -15 -15 -15 -15 -15 -15 -15 -15 -15 -14 -14 -14 -14 -15 -15 -16 -16 -16 -16 -15 -16 -16 -16 -15 -15 -16 -17 -16 -15 -16 -16 -16 -16 -16 -15 -16 -16 -16 -16 -16
-16 -15 -15 -15 -15 -15 -16 -16 -16 -16 -15 -15 -15 -15 -15 -15 -15 -16 -16 -17 -17 -17 -17 -17 -17 -17 -16 -16 -16 -16 -16 -16 -16 -16 -15 -16 -16 -16 -17 -16 -16 -17 -17
Height
5753 5753 5754 5757 5760 5763 5767 5771 5777 5778 5779 5781 5785 5789 5793 5797 5799 5801 5804 5806 5810 5812 5813 5815 5817 5818 5819 5821 5822 5823 5824 5824 5826 5826 5827 5827 5828 5829 5830 5831 5831 5832 5831
5748 5748 5749 5752 5755 5760 5764 5768 5771 5772 5773 5776 5780 5784 5788 5792 5794 5796 5799 5802 5805 5808 5808 5811 5813 5815 5816 5817 5819 5820 5820 5821 5822 5822 5823 5823 5824 5824 5826 5826 5826 5826 5826
5742 5743 5744 5747 5751 5755 5760 5762 5765 5769 5771 5773 5777 5780 5784 5786 5788 5791 5794 5797 5799 5803 5804 5807 5808 5810 5812 5813 5814 5815 5816 5817 5817 5817 5818 5818 5819 5819 5821 5821 5821 5821 5821
5737 5736 5738 5743 5746 5749 5754 5757 5760 5765 5768 5770 5773 5776 5779 5782 5784 5787 5789 5792 5796 5798 5800 5802 5804 5806 5808 5808 5809 5810 5811 5812 5812 5813 5813 5813 5814 5813 5814 5815 5815 5816 5815
5730 5730 5733 5738 5741 5744 5748 5752 5756 5761 5764 5766 5769 5772 5774 5778 5780 5783 5785 5789 5791 5794 5795 5797 5800 5802 5804 5805 5806 5806 5806 5806 5807 5807 5807 5809 5808 5808 5809 5809 5809 5809 5810
5723 5726 5728 5732 5735 5739 5743 5748 5752 5756 5759 5761 5765 5767 5770 5773 5776 5779 5782 5784 5788 5790 5791 5793 5796 5798 5799 5800 5801 5801 5801 5801 5801 5801 5801 5802 5802 5803 5802 5803 5802 5803 5803
5712 5718 5723 5727 5729 5735 5739 5743 5748 5751 5754 5758 5761 5764 5767 5770 5774 5776 5778 5779 5783 5785 5786 5788 5790 5792 5793 5795 5795 5795 5795 5795 5796 5795 5795 5795 5795 5795 5795 5795 5795 5795 5796
5710 5712 5717 5722 5726 5730 5734 5738 5743 5747 5750 5753 5757 5760 5765 5768 5770 5771 5773 5775 5777 5780 5781 5782 5783 5785 5785 5787 5788 5788 5788 5787 5787 5788 5788 5788 5787 5787 5787 5787 5787 5787 5788
5705 5707 5711 5715 5721 5726 5730 5734 5738 5742 5746 5748 5752 5756 5760 5763 5764 5767 5768 5771 5773 5774 5774 5775 5776 5777 5778 5778 5779 5780 5780 5779 5779 5779 5780 5779 5779 5779 5779 5779 5779 5779 5779
5698 5699 5705 5711 5716 5721 5726 5731 5734 5739 5743 5746 5749 5752 5755 5758 5759 5763 5763 5764 5765 5766 5767 5767 5768 5769 5769 5770 5770 5771 5770 5770 5771 5771 5770 5769 5769 5771 5771 5771 5770 5770 5770
5697 5699 5703 5708 5712 5716 5722 5726 5731 5736 5739 5742 5745 5748 5750 5753 5754 5756 5757 5757 5758 5758 5758 5758 5758 5758 5758 5760 5760 5761 5762 5762 5763 5762 5761 5763 5762 5762 5763 5763 5762 5762 5762
5696 5698 5700 5704 5709 5714 5718 5722 5726 5730 5734 5737 5740 5743 5745 5747 5748 5749 5750 5750 5751 5751 5750 5751 5751 5749 5750 5751 5752 5752 5752 5752 5753 5753 5753 5754 5754 5756 5755 5754 5754 5754 5754
5695 5696 5699 5702 5706 5710 5715 5719 5723 5726 5729 5732 5735 5737 5739 5740 5741 5743 5743 5744 5744 5743 5743 5745 5745 5743 5743 5743 5743 5743 5742 5742 5742 5743 5745 5746 5748 5748 5748 5747 5747 5747 5747
5694 5695 5697 5700 5703 5708 5711 5716 5719 5723 5725 5727 5729 5731 5732 5734 5734 5736 5736 5736 5737 5736 5737 5738 5737 5736 5734 5734 5734 5734 5734 5734 5734 5735 5737 5739 5741 5740 5740 5741 5740 5740 5739
5693 5693 5693 5697 5700 5703 5706 5710 5714 5716 5719 5721 5723 5724 5726 5726 5727 5728 5729 5729 5729 5730 5730 5729 5728 5728 5727 5726 5727 5726 5727 5726 5726 5727 5730 5731 5731 5731 5732 5731 5731 5730 5729
5692 5693 5694 5696 5699 5700 5703 5706 5708 5711 5713 5715 5717 5718 5718 5719 5720 5720 5721 5721 5721 5722 5723 5721 5720 5721 5720 5719 5719 5718 5719 5720 5721 5721 5722 5722 5722 5721 5721 5720 5720 5719 5717
5689 5690 5691 5691 5692 5696 5698 5702 5704 5706 5707 5708 5710 5710 5711 5712 5713 5714 5714 5715 5715 5715 5715 5715 5713 5714 5712 5711 5712 5711 5711 5712 5713 5714 5714 5713 5712 5711 5710 5709 5707 5706 5705
5686 5686 5687 5689 5691 5693 5695 5697 5698 5700 5701 5703 5704 5705 5705 5707 5709 5709 5708 5709 5708 5708 5706 5709 5709 5706 5703 5705 5704 5703 5702 5702 5702 5703 5704 5702 5702 5700 5697 5696 5695 5694 5693
5684 5685 5685 5687 5688 5689 5690 5692 5693 5695 5696 5697 5698 5700 5702 5702 5702 5701 5701 5701 5701 5699 5697 5696 5701 5699 5697 5696 5694 5694 5693 5693 5691 5692 5691 5692 5691 5688 5686 5684 5682 5681 5680
5679 5681 5683 5684 5685 5685 5687 5688 5689 5690 5691 5691 5692 5693 5694 5694 5693 5693 5692 5692 5691 5691 5690 5688 5691 5691 5689 5690 5686 5686 5685 5682 5681 5679 5679 5680 5679 5677 5674 5668 5669 5669 5667
5675 5676 5677 5678 5679 5682 5684 5683 5684 5685 5685 5685 5685 5686 5686 5686 5685 5685 5684 5685 5683 5682 5681 5679 5678 5682 5682 5680 5679 5676 5672 5672 5672 5669 5667 5665 5663 5661 5655 5656 5654 5653 5651
5668 5670 5671 5672 5673 5675 5676 5676 5677 5677 5677 5678 5678 5677 5676 5676 5677 5676 5675 5675 5675 5672 5671 5669 5666 5663 5666 5668 5666 5664 5662 5659 5660 5660 5655 5651 5649 5644 5643 5641 5641 5640 5637
5662 5663 5664 5665 5666 5668 5669 5669 5669 5668 5668 5667 5666 5667 5668 5667 5666 5666 5666 5664 5662 5660 5656 5653 5651 5651 5649 5648 5649 5651 5648 5642 5641 5639 5636 5631 5630 5627 5625 5623 5623 5621 5616
5654 5655 5657 5658 5659 5659 5660 5660 5660 5658 5657 5658 5658 5658 5657 5656 5655 5654 5653 5651 5649 5646 5645 5643 5639 5636 5634 5633 5631 5628 5626 5624 5623 5622 5618 5613 5610 5606 5604 5601 5599 5597 5593
5645 5646 5647 5647 5648 5648 5649 5648 5647 5647 5647 5646 5646 5645 5643 5642 5641 5640 5639 5636 5633 5632 5631 5629 5625 5622 5619 5616 5615 5613 5609 5605 5601 5598 5593 5589 5586 5582 5580 5576 5573 5570 5569
5634 5635 5635 5636 5636 5636 5637 5636 5635 5634 5633 5632 5632 5630 5629 5627 5625 5623 5620 5617 5614 5612 5610 5608 5605 5603 5600 5598 5595 5591 5589 5587 5581 5575 5574 5566 5561 5560 5554 5551 5549 5545 5543
Wind_Speed
23 26 26 26 33 23 25 33 25 22 20 33 32 33 34 33 31 30 30 31 36 30 22 22 21 20 22 22 22 22 22 22 24 22 22 20 21 24 25 26 27 27 26
22 24 24 26 27 29 27 32 26 20 19 28 34 32 33 35 34 32 33 32 28 24 24 24 24 25 24 23 24 24 22 24 24 23 23 22 23 23 26 28 28 27 26
22 26 25 29 29 31 30 34 27 21 21 23 30 33 33 36 36 34 30 31 27 29 26 26 26 27 25 25 25 25 24 25 25 25 24 24 25 25 27 27 27 27 27
24 27 27 30 27 33 39 41 33 23 25 26 29 32 33 39 32 28 29 27 31 30 27 28 27 28 28 27 26 26 27 26 27 27 26 27 27 26 27 27 27 27 28
23 24 24 28 29 30 38 44 38 30 27 27 31 36 37 33 33 32 31 31 34 31 29 27 28 30 29 28 29 29 30 30 30 29 30 30 29 29 28 28 27 27 29
24 24 30 29 32 30 41 47 43 35 34 30 33 34 33 34 33 32 29 29 33 33 29 28 28 30 30 30 31 32 33 32 32 32 32 31 32 31 30 29 28 28 30
19 27 23 28 27 33 37 44 42 40 33 28 29 23 24 26 26 25 28 27 34 34 33 31 30 30 29 32 33 34 35 35 35 36 35 35 34 35 33 31 33 34 33
24 26 30 26 27 33 35 40 39 38 30 28 30 26 24 24 25 25 28 31 32 34 38 36 35 33 34 35 36 37 38 40 40 39 39 40 38 38 35 36 36 37 34
22 27 32 29 30 32 32 37 37 23 24 22 20 19 22 24 29 28 30 28 32 36 41 40 39 40 41 41 41 41 42 45 42 41 42 42 42 39 37 39 38 37 38
15 20 30 32 32 31 30 32 23 25 21 19 20 18 19 23 28 29 30 30 30 34 40 40 41 41 38 41 45 44 45 43 44 44 46 45 42 34 36 35 34 34 37
10 22 27 29 31 32 33 32 25 24 24 23 21 22 22 24 29 30 31 33 31 32 35 37 43 47 48 42 37 38 47 41 43 45 51 39 35 34 34 34 33 34 34
9 10 19 27 31 29 28 26 28 28 30 28 25 23 26 30 29 31 32 32 31 34 34 36 40 45 45 45 42 39 39 42 42 36 33 36 28 30 33 31 31 31 29
5 11 19 20 24 26 30 31 30 31 27 27 27 27 26 27 31 31 31 30 25 30 30 26 26 29 34 37 40 42 37 36 36 34 33 26 28 30 28 29 29 30 31
5 7 12 18 20 24 26 30 32 35 28 25 22 26 29 30 32 32 32 33 31 31 30 27 25 24 28 33 34 35 37 34 35 35 26 28 31 32 31 33 33 34 35
4 4 9 21 24 25 23 29 29 29 28 26 23 25 28 29 31 35 38 36 36 34 30 29 31 28 29 30 31 35 34 31 27 26 28 33 33 33 35 35 36 38 38
4 3 3 11 15 16 12 17 27 23 25 28 30 28 31 32 34 38 38 31 35 37 33 35 37 32 28 26 25 26 26 28 30 31 32 33 34 36 36 37 38 39 40
4 2 4 4 4 8 12 12 16 20 21 26 30 29 27 28 31 29 29 28 27 30 35 35 36 35 32 30 30 32 32 32 31 34 36 38 39 39 40 41 42 44 45
9 7 8 8 8 9 11 12 12 12 12 13 16 16 18 21 23 26 25 26 25 27 32 30 30 32 36 35 36 37 35 34 36 37 38 42 43 45 47 47 48 49 49
14 12 11 11 13 16 16 16 16 16 16 16 16 17 19 23 23 26 28 29 30 32 35 35 29 36 36 37 38 39 41 40 43 43 45 45 47 49 51 51 53 54 54
18 17 16 17 17 17 17 17 18 18 19 20 21 23 24 25 26 28 30 30 32 34 36 38 35 34 38 38 43 44 45 47 50 51 52 51 51 52 54 58 58 55 57
20 21 20 21 21 20 20 22 23 23 24 25 27 28 30 31 33 34 36 36 39 40 41 43 42 40 40 42 43 46 49 51 52 54 55 57 57 57 61 59 60 61 63
18 18 19 21 22 21 23 25 27 28 29 31 31 33 36 37 39 40 42 43 45 48 48 50 51 52 50 49 50 52 53 54 55 57 58 59 62 65 65 63 62 62 65
21 21 21 21 22 23 24 26 28 31 33 35 36 37 38 39 40 42 44 46 49 53 54 56 56 56 57 56 55 53 58 62 62 63 65 66 65 69 66 66 64 68 69
25 24 24 24 25 28 28 29 30 33 35 36 37 39 40 42 45 47 49 51 53 54 56 58 60 64 64 64 65 66 68 69 68 67 67 69 69 69 73 76 76 80 79
30 30 31 33 33 33 36 37 37 38 39 39 41 44 46 48 49 50 52 53 56 58 61 62 64 66 67 68 67 71 70 76 73 71 79 75 74 77 82 78 80 80 79
39 35 37 41 44 43 42 44 46 47 47 48 50 52 54 55 56 55 56 57 57 59 61 64 65 66 69 70 70 71 72 76 82 77 83 88 76 75 86 82 78 80 78
Wind_Direction
263 259 250 242 224 209 208 211 211 212 214 211 208 213 219 223 227 228 228 230 233 239 219 233 237 236 236 237 241 246 248 252 256 261 263 265 265 263 263 265 267 272 274
267 258 248 234 206 205 203 203 209 211 213 209 208 214 221 227 230 234 231 241 245 223 223 229 234 234 238 242 247 250 254 259 261 265 265 268 270 270 270 269 271 272 274
266 253 240 222 219 216 211 207 212 222 221 209 213 218 223 228 229 235 235 238 240 220 224 231 233 236 238 243 248 253 258 261 264 264 267 268 271 270 270 272 275 275 276
267 246 235 218 230 212 213 207 215 225 224 215 215 219 229 239 238 231 227 234 218 220 224 231 233 237 242 244 247 252 254 259 263 264 268 268 270 269 270 274 276 277 277
254 236 221 223 221 214 212 209 218 222 228 223 226 232 235 236 239 228 225 232 222 224 228 234 239 244 248 251 251 252 254 256 259 265 268 268 273 272 270 273 277 277 271
235 233 215 226 228 223 217 214 218 232 234 232 234 234 235 236 240 229 224 227 227 229 232 238 243 248 250 252 256 255 257 258 260 264 268 271 272 270 270 272 273 271 262
244 234 231 228 229 232 216 212 220 228 233 243 237 238 234 227 219 226 225 235 229 233 235 239 245 249 253 258 260 259 258 259 260 262 267 269 269 269 267 269 271 271 267
225 240 221 232 222 215 216 216 221 229 242 247 234 236 231 231 231 235 232 235 239 239 242 241 245 249 251 254 256 258 258 258 258 261 263 267 269 267 270 270 269 277 267
231 234 234 214 225 218 225 226 223 223 231 226 228 227 231 233 239 238 232 238 244 251 251 245 246 251 253 250 253 257 259 262 259 261 262 265 266 273 275 273 275 274 272
237 224 205 217 216 215 217 210 216 214 219 218 219 227 233 239 246 245 246 249 254 252 253 248 249 252 257 262 258 259 263 267 261 268 265 262 271 273 274 274 275 277 278
205 194 198 207 219 220 214 221 216 216 226 234 236 241 244 251 255 252 254 257 259 258 250 245 247 250 254 258 261 268 264 263 273 276 277 274 270 271 273 273 275 275 274
182 194 216 214 206 210 209 211 217 224 231 234 241 256 255 255 252 251 254 258 260 263 263 259 256 254 255 258 261 259 261 264 269 270 268 268 269 273 272 274 274 274 276
225 202 209 215 216 215 216 217 223 230 233 235 242 257 257 258 250 251 254 256 258 257 265 262 270 272 268 267 264 264 262 261 265 267 268 263 268 270 272 271 273 274 278
349 249 220 211 217 226 233 233 237 234 238 245 255 257 257 259 257 257 244 260 249 256 258 261 269 279 279 272 268 263 260 263 264 267 261 265 266 269 274 277 277 277 276
302 339 236 217 220 231 236 234 241 241 238 244 251 257 262 259 258 253 253 260 252 253 254 261 267 273 272 272 269 265 268 265 261 262 259 261 269 273 277 278 278 278 277
345 194 166 214 217 214 233 237 234 242 249 252 256 264 270 264 263 261 262 267 263 251 255 264 266 267 268 270 270 267 268 269 269 270 271 271 273 276 279 282 280 278 277
287 243 210 177 182 223 242 243 247 253 254 256 258 261 265 263 266 268 272 270 271 270 267 262 261 266 264 264 266 268 268 271 273 276 275 275 277 279 278 276 274 274 275
256 244 211 212 219 222 229 236 246 252 255 258 258 261 269 269 267 269 271 275 273 272 270 262 267 265 264 268 269 272 275 278 276 273 274 275 276 277 276 274 275 278 281
243 244 244 234 227 226 230 238 247 255 263 266 269 269 268 270 272 274 275 276 276 273 275 277 275 273 274 274 276 276 279 280 278 277 274 272 272 273 275 276 278 278 280
242 238 238 241 244 247 251 256 258 261 263 266 269 271 272 274 274 274 275 277 280 281 281 282 282 280 278 279 278 280 281 279 279 279 280 279 277 276 275 275 277 280 281
250 250 252 255 255 257 259 259 261 262 263 267 270 271 272 274 275 276 278 278 278 279 280 282 282 279 277 275 274 274 275 274 273 274 275 277 276 273 273 276 277 280 281
247 246 249 256 261 264 267 267 268 269 268 267 270 272 270 272 272 273 275 277 279 281 282 283 283 283 281 277 276 274 274 275 277 279 274 271 269 271 273 274 275 275 276
246 249 253 259 265 265 265 266 267 267 267 266 268 273 276 277 278 279 279 281 282 281 281 280 282 282 282 282 282 281 281 281 283 279 278 276 278 275 274 275 274 275 273
249 256 256 259 271 275 272 270 268 268 268 269 270 270 272 275 277 279 279 278 276 275 277 279 280 281 281 281 282 283 283 282 281 281 280 279 276 276 279 282 276 276 278
253 256 261 264 270 274 276 278 278 276 276 276 277 276 276 276 276 276 276 273 272 275 277 275 275 276 278 279 282 281 285 284 286 283 282 276 276 275 276 275 278 279 280
260 263 267 271 272 273 276 277 277 276 275 276 277 277 277 279 280 280 280 280 279 278 278 278 276 274 274 274 274 275 274 269 272 275 272 273 275 276 276 277 277 283 279